RYR34GF EGCC-LGKR

Flight info

Callsign RYR34GF
Flight time N/A
Altitude 35000
Route SONEX L975 DESIG L603 DOLAS DCT NAVPI DCT DODEN DCT NEGIX DCT DINKU M867 XERUM DCT BAVAX DCT RADIZ DCT MODRO DCT DARZA DCT DEPET DCT UNIPA DCT VAKSU DCT RODON DCT LIMJA N732 PITAS
Aircraft B738/M-SDE2E3FGHIRWXY/LB1

Departure

Time N/A
Airport Manchester Airport (EGCC)

Arrival

Time 2026-04-27 14:05
Airport Corfu Ioannis Kapodistrias International Airport (LGKR)
Time Latitude Longitude Altitude Speed Heading
2026-04-27 12:46 47.17771 13.07700 35128 ft 494 kts 141°
2026-04-27 12:46 47.15096 13.10872 35141 ft 494 kts 141°
2026-04-27 12:47 47.09747 13.17203 35141 ft 494 kts 141°
2026-04-27 12:47 47.04386 13.23532 35138 ft 494 kts 141°
2026-04-27 12:48 46.99037 13.29830 35128 ft 493 kts 141°
2026-04-27 12:48 46.93731 13.36062 35116 ft 492 kts 141°
2026-04-27 12:49 46.88403 13.42302 35121 ft 490 kts 141°
2026-04-27 12:49 46.83045 13.48563 35114 ft 489 kts 141°
2026-04-27 12:50 46.77724 13.54761 35121 ft 490 kts 142°
2026-04-27 12:50 46.72396 13.60953 35125 ft 490 kts 142°
2026-04-27 12:51 46.67093 13.67099 35114 ft 490 kts 142°
2026-04-27 12:51 46.61754 13.73271 35114 ft 490 kts 142°
2026-04-27 12:52 46.56411 13.79434 35119 ft 490 kts 142°
2026-04-27 12:52 46.51069 13.85578 35130 ft 490 kts 142°
2026-04-27 12:53 46.43068 13.94762 35137 ft 488 kts 142°
2026-04-27 12:53 46.37732 14.00859 35134 ft 489 kts 142°
2026-04-27 12:54 46.32387 14.06942 35152 ft 489 kts 142°
2026-04-27 12:54 46.27038 14.13022 35154 ft 489 kts 142°
2026-04-27 12:55 46.21679 14.19100 35158 ft 489 kts 142°
2026-04-27 12:55 46.16321 14.25162 35162 ft 489 kts 142°
2026-04-27 12:56 46.10961 14.31216 35163 ft 489 kts 142°
2026-04-27 12:56 46.05599 14.37250 35151 ft 489 kts 142°
2026-04-27 12:57 46.00259 14.43328 35161 ft 489 kts 141°
2026-04-27 12:57 45.94931 14.49429 35161 ft 490 kts 141°
2026-04-27 12:58 45.89590 14.55525 35153 ft 490 kts 141°
2026-04-27 12:58 45.84246 14.61597 35157 ft 490 kts 141°
2026-04-27 12:59 45.78899 14.67654 35158 ft 490 kts 141°
2026-04-27 12:59 45.73548 14.73701 35160 ft 491 kts 141°
2026-04-27 13:00 45.68181 14.79750 35161 ft 491 kts 141°
2026-04-27 13:00 45.62813 14.85788 35162 ft 491 kts 141°
2026-04-27 13:01 45.57439 14.91818 35150 ft 491 kts 141°
2026-04-27 13:01 45.52065 14.97834 35172 ft 491 kts 141°
2026-04-27 13:02 45.46722 15.03895 35165 ft 490 kts 139°
2026-04-27 13:02 45.41508 15.10167 35160 ft 491 kts 139°
2026-04-27 13:03 45.36316 15.16456 35159 ft 490 kts 139°
2026-04-27 13:03 45.31104 15.22706 35165 ft 490 kts 139°
2026-04-27 13:04 45.25885 15.28918 35161 ft 489 kts 139°
2026-04-27 13:04 45.20662 15.35113 35160 ft 489 kts 139°
2026-04-27 13:05 45.15440 15.41295 35154 ft 489 kts 139°
2026-04-27 13:05 45.10217 15.47463 35150 ft 489 kts 139°
2026-04-27 13:06 45.04992 15.53619 35165 ft 489 kts 139°
2026-04-27 13:06 44.99793 15.59730 35158 ft 489 kts 139°
2026-04-27 13:07 44.94520 15.65912 35155 ft 489 kts 139°
2026-04-27 13:07 44.89313 15.72003 35154 ft 489 kts 139°
2026-04-27 13:08 44.84034 15.78163 35164 ft 489 kts 139°
2026-04-27 13:08 44.78829 15.84222 35151 ft 489 kts 139°
2026-04-27 13:09 44.73579 15.90319 35147 ft 489 kts 139°
2026-04-27 13:09 44.68323 15.96385 35138 ft 489 kts 141°
2026-04-27 13:10 44.62548 16.01442 35129 ft 490 kts 150°
2026-04-27 13:10 44.56578 16.06046 35132 ft 490 kts 151°
2026-04-27 13:11 44.50621 16.10688 35127 ft 490 kts 150°
2026-04-27 13:11 44.44694 16.15381 35118 ft 489 kts 150°
2026-04-27 13:12 44.38771 16.20084 35116 ft 489 kts 150°
2026-04-27 13:12 44.32856 16.24768 35116 ft 489 kts 150°
2026-04-27 13:13 44.26939 16.29439 35110 ft 489 kts 150°
2026-04-27 13:13 44.22012 16.33317 35111 ft 489 kts 150°
2026-04-27 13:14 44.16089 16.37972 35104 ft 488 kts 150°
2026-04-27 13:14 44.10169 16.42614 35112 ft 488 kts 150°
2026-04-27 13:15 44.04247 16.47247 35108 ft 488 kts 150°
2026-04-27 13:15 43.98615 16.52509 35120 ft 489 kts 143°
2026-04-27 13:16 43.93241 16.58303 35106 ft 489 kts 142°
2026-04-27 13:16 43.87876 16.64092 35112 ft 489 kts 142°
2026-04-27 13:17 43.82478 16.69812 35111 ft 489 kts 143°
2026-04-27 13:17 43.77061 16.75489 35117 ft 489 kts 143°
2026-04-27 13:18 43.71634 16.81154 35115 ft 489 kts 143°
2026-04-27 13:18 43.66206 16.86809 35116 ft 488 kts 143°
2026-04-27 13:19 43.60777 16.92456 35120 ft 488 kts 143°
2026-04-27 13:19 43.55348 16.98092 35116 ft 488 kts 143°
2026-04-27 13:20 43.49914 17.03719 35112 ft 489 kts 143°
2026-04-27 13:20 43.44479 17.09334 35117 ft 489 kts 144°
2026-04-27 13:21 43.39042 17.14937 35117 ft 488 kts 144°
2026-04-27 13:21 43.33600 17.20534 35111 ft 488 kts 144°
2026-04-27 13:22 43.28195 17.26081 35100 ft 488 kts 144°
2026-04-27 13:22 43.22757 17.31648 35106 ft 488 kts 144°
2026-04-27 13:23 43.17315 17.37206 35114 ft 487 kts 144°
2026-04-27 13:23 43.11875 17.42750 35117 ft 488 kts 145°
2026-04-27 13:24 43.06430 17.48284 35094 ft 487 kts 145°
2026-04-27 13:24 43.00992 17.53804 35109 ft 487 kts 145°
2026-04-27 13:25 42.95545 17.59316 35106 ft 487 kts 145°
2026-04-27 13:25 42.90097 17.64817 35118 ft 488 kts 145°
2026-04-27 13:26 42.84632 17.70323 35107 ft 488 kts 146°
2026-04-27 13:26 42.79170 17.75814 35101 ft 488 kts 146°
2026-04-27 13:27 42.73700 17.81301 35107 ft 488 kts 146°
2026-04-27 13:27 42.68230 17.86776 35108 ft 488 kts 146°
2026-04-27 13:28 42.62757 17.92241 35107 ft 488 kts 146°
2026-04-27 13:28 42.57280 17.97699 35103 ft 489 kts 146°
2026-04-27 13:29 42.51796 18.03151 35109 ft 489 kts 146°
2026-04-27 13:29 42.46310 18.08592 35104 ft 489 kts 146°
2026-04-27 13:30 42.40819 18.14028 35107 ft 489 kts 146°
2026-04-27 13:30 42.35324 18.19454 35094 ft 489 kts 146°
2026-04-27 13:31 42.29826 18.24872 35105 ft 489 kts 147°
2026-04-27 13:31 42.24329 18.30277 35098 ft 489 kts 147°
2026-04-27 13:32 42.18825 18.35678 35093 ft 489 kts 147°
2026-04-27 13:32 42.13317 18.41070 35095 ft 489 kts 147°
2026-04-27 13:33 42.07810 18.46450 35094 ft 489 kts 147°
2026-04-27 13:33 42.02340 18.51783 35097 ft 489 kts 147°
2026-04-27 13:34 41.96890 18.57268 35093 ft 490 kts 144°
2026-04-27 13:34 41.91518 18.62909 35096 ft 490 kts 144°
2026-04-27 13:35 41.86142 18.68537 35086 ft 490 kts 144°
2026-04-27 13:35 41.80754 18.74126 35091 ft 490 kts 145°
2026-04-27 13:36 41.75357 18.79695 35096 ft 490 kts 145°
2026-04-27 13:36 41.69958 18.85254 35086 ft 490 kts 145°
2026-04-27 13:37 41.64559 18.90803 35067 ft 489 kts 145°
2026-04-27 13:37 41.59161 18.96342 35082 ft 489 kts 144°
2026-04-27 13:38 41.53770 19.01861 35082 ft 488 kts 145°
2026-04-27 13:38 41.48378 19.07369 35081 ft 488 kts 145°
2026-04-27 13:39 41.45571 19.09904 34853 ft 489 kts 153°
2026-04-27 13:39 41.42503 19.11832 34430 ft 485 kts 163°
2026-04-27 13:39 41.39341 19.13354 34035 ft 481 kts 163°
2026-04-27 13:39 41.36191 19.14830 33566 ft 479 kts 163°
2026-04-27 13:40 41.33038 19.16307 33135 ft 481 kts 163°
2026-04-27 13:40 41.29882 19.17801 32714 ft 483 kts 163°
2026-04-27 13:40 41.26722 19.19316 32290 ft 484 kts 162°
2026-04-27 13:40 41.23556 19.20846 31860 ft 485 kts 162°
2026-04-27 13:41 41.20385 19.22387 31453 ft 486 kts 162°
2026-04-27 13:41 41.17209 19.23932 31034 ft 487 kts 162°
2026-04-27 13:41 41.14027 19.25480 30620 ft 488 kts 162°
2026-04-27 13:41 41.10831 19.27032 30205 ft 489 kts 162°
2026-04-27 13:42 41.07632 19.28583 29713 ft 491 kts 162°
2026-04-27 13:42 41.04421 19.30137 29242 ft 491 kts 162°
2026-04-27 13:42 41.01210 19.31690 28794 ft 492 kts 162°
2026-04-27 13:42 40.97993 19.33243 28340 ft 492 kts 162°
2026-04-27 13:43 40.94771 19.34797 27881 ft 493 kts 162°
2026-04-27 13:43 40.91545 19.36351 27431 ft 494 kts 161°
2026-04-27 13:43 40.88308 19.37909 26979 ft 495 kts 161°
2026-04-27 13:43 40.85069 19.39467 26522 ft 496 kts 161°
2026-04-27 13:44 40.81818 19.41029 26073 ft 498 kts 161°
2026-04-27 13:44 40.78562 19.42591 25618 ft 499 kts 161°
2026-04-27 13:44 40.75297 19.44156 25164 ft 499 kts 161°
2026-04-27 13:44 40.72086 19.45694 24704 ft 496 kts 161°
2026-04-27 13:45 40.68825 19.47256 24243 ft 489 kts 161°
2026-04-27 13:45 40.65651 19.48773 23791 ft 484 kts 161°
2026-04-27 13:45 40.62538 19.50259 23281 ft 481 kts 161°
2026-04-27 13:45 40.59359 19.51775 22795 ft 477 kts 161°
2026-04-27 13:46 40.56253 19.53255 22327 ft 473 kts 161°
2026-04-27 13:46 40.53206 19.54703 21874 ft 470 kts 161°
2026-04-27 13:46 40.50145 19.56154 21416 ft 466 kts 161°
2026-04-27 13:46 40.47066 19.57611 20980 ft 462 kts 161°
2026-04-27 13:47 40.44051 19.59037 20558 ft 459 kts 161°
2026-04-27 13:47 40.41094 19.60435 20135 ft 456 kts 161°
2026-04-27 13:47 40.38118 19.61841 19702 ft 453 kts 161°
2026-04-27 13:47 40.35161 19.63237 19279 ft 450 kts 161°
2026-04-27 13:48 40.32220 19.64624 18849 ft 447 kts 161°
2026-04-27 13:48 40.29302 19.65999 18426 ft 444 kts 161°
2026-04-27 13:48 40.26399 19.67367 17931 ft 442 kts 161°
2026-04-27 13:48 40.23513 19.68725 17469 ft 440 kts 161°
2026-04-27 13:49 40.20646 19.70072 17030 ft 436 kts 161°
2026-04-27 13:49 40.17795 19.71410 16605 ft 433 kts 161°
2026-04-27 13:49 40.14973 19.72733 16181 ft 430 kts 161°
2026-04-27 13:49 40.12171 19.74047 15765 ft 426 kts 161°
2026-04-27 13:50 40.09385 19.75352 15351 ft 424 kts 161°
2026-04-27 13:50 40.06620 19.76645 14928 ft 421 kts 161°
2026-04-27 13:50 40.03872 19.77930 14521 ft 418 kts 161°
2026-04-27 13:50 40.01138 19.79207 14096 ft 416 kts 161°
2026-04-27 13:51 39.98422 19.80475 13646 ft 414 kts 161°
2026-04-27 13:51 39.95724 19.81734 13196 ft 410 kts 161°
2026-04-27 13:51 39.93050 19.82980 12774 ft 406 kts 161°
2026-04-27 13:51 39.90411 19.84206 12372 ft 400 kts 161°
2026-04-27 13:52 39.87746 19.85168 11905 ft 396 kts 169°
2026-04-27 13:52 39.85051 19.85772 11500 ft 391 kts 172°
2026-04-27 13:52 39.82364 19.86280 11102 ft 388 kts 172°
2026-04-27 13:52 39.79696 19.86788 10719 ft 387 kts 171°
2026-04-27 13:53 39.74624 19.87839 10107 ft 346 kts 170°
2026-04-27 13:53 39.72323 19.88343 10034 ft 323 kts 170°
2026-04-27 13:53 39.70181 19.88819 9997 ft 301 kts 169°
2026-04-27 13:54 39.68162 19.89269 9658 ft 293 kts 170°
2026-04-27 13:54 39.66165 19.89714 9215 ft 288 kts 170°
2026-04-27 13:54 39.64203 19.90150 8735 ft 285 kts 170°
2026-04-27 13:54 39.62263 19.90578 8384 ft 281 kts 172°
2026-04-27 13:55 39.60357 19.90436 8291 ft 271 kts 197°
2026-04-27 13:55 39.58663 19.89394 7758 ft 272 kts 212°
2026-04-27 13:55 39.57093 19.88053 7379 ft 269 kts 213°
2026-04-27 13:55 39.55561 19.86723 7092 ft 261 kts 213°
2026-04-27 13:56 39.54082 19.85445 6909 ft 250 kts 213°
2026-04-27 13:56 39.52641 19.84215 6726 ft 247 kts 213°
2026-04-27 13:56 39.51204 19.82994 6480 ft 247 kts 213°
2026-04-27 13:56 39.49771 19.81782 6230 ft 246 kts 212°
2026-04-27 13:57 39.48342 19.80578 5976 ft 244 kts 212°
2026-04-27 13:57 39.46941 19.79399 5731 ft 243 kts 212°
2026-04-27 13:57 39.45524 19.78208 5455 ft 243 kts 212°
2026-04-27 13:57 39.44068 19.77165 5132 ft 237 kts 195°
2026-04-27 13:58 39.42463 19.77124 4882 ft 230 kts 165°
2026-04-27 13:58 39.41060 19.78084 4669 ft 231 kts 138°
2026-04-27 13:58 39.40134 19.79747 4576 ft 229 kts 114°
2026-04-27 13:58 39.39816 19.81779 4507 ft 235 kts 93°
2026-04-27 13:59 39.39840 19.83905 4411 ft 238 kts 91°
2026-04-27 13:59 39.39877 19.86051 4295 ft 236 kts 91°
2026-04-27 13:59 39.39984 19.88135 4125 ft 231 kts 81°
2026-04-27 13:59 39.40446 19.90102 3874 ft 226 kts 75°
2026-04-27 14:00 39.40910 19.92012 3635 ft 220 kts 76°
2026-04-27 14:00 39.41347 19.93875 3413 ft 213 kts 77°
2026-04-27 14:00 39.41832 19.95661 3198 ft 209 kts 62°
2026-04-27 14:00 39.42896 19.96856 3012 ft 205 kts 21°
2026-04-27 14:01 39.44306 19.96940 2855 ft 206 kts 346°
2026-04-27 14:01 39.45243 19.96638 2703 ft 205 kts 346°
2026-04-27 14:01 39.46605 19.96186 2530 ft 198 kts 344°
2026-04-27 14:01 39.47915 19.95716 2300 ft 194 kts 343°
2026-04-27 14:02 39.49195 19.95240 2046 ft 189 kts 343°
2026-04-27 14:02 39.50452 19.94768 1798 ft 186 kts 343°
2026-04-27 14:02 39.51656 19.94316 1557 ft 174 kts 343°
2026-04-27 14:02 39.52748 19.93907 1337 ft 158 kts 342°
2026-04-27 14:03 39.53779 19.93520 1136 ft 152 kts 343°
2026-04-27 14:03 39.54795 19.93140 940 ft 151 kts 341°
2026-04-27 14:03 39.55802 19.92753 796 ft 153 kts 340°
2026-04-27 14:03 39.56849 19.92279 581 ft 163 kts 338°
2026-04-27 14:04 39.57927 19.91817 293 ft 163 kts 346°
2026-04-27 14:04 39.59026 19.91501 91 ft 161 kts 349°
2026-04-27 14:04 39.60079 19.91244 20 ft 140 kts 348°
2026-04-27 14:04 39.60877 19.91037 20 ft 76 kts 348°
2026-04-27 14:05 39.61034 19.91040 20 ft 13 kts 59°
2026-04-27 14:05 39.61037 19.91130 19 ft 10 kts 153°
2026-04-27 14:05 39.60970 19.91148 18 ft 10 kts 172°
2026-04-27 14:05 39.60905 19.91164 19 ft 9 kts 168°
2026-04-27 14:06 39.60834 19.91183 19 ft 12 kts 169°
2026-04-27 14:06 39.60743 19.91205 17 ft 13 kts 169°
2026-04-27 14:06 39.60704 19.91215 19 ft 1 kts 169°
2026-04-27 14:06 39.60694 19.91227 18 ft 7 kts 122°
2026-04-27 14:07 39.60697 19.91298 19 ft 8 kts 78°
2026-04-27 14:07 39.60706 19.91354 17 ft 2 kts 79°